• Join FlightAware (Why Join?)
  • Login
  • US Flag 
01:51AM EST


 

Airport Tracker/Info


-or-


 

Live Flight TrackerFlight Track Log ✈ CHQ4999 ✈ 2013年07月13日 ✈ KCMH - KORD

Flight Track Log - Related Links

Times and Time Zones

All times are in EDT time to prevent confusion due to time zone crossing. See the CHQ4999 flight status page for this flight to view local times or setup timezone preferences in your user account.

Time Position Orientation Groundspeed Altitude Reporting Facility
EDT Latitude Longitude Course Direction KTS MPH feet Rate Location/Type
06:03AM 40.0006 -82.8822 288° West 159 183 1,100  Level Indianapolis Center
06:04AM 39.9992 -82.8083 91° East 193 222 3,600 2,160 Climbing Indianapolis Center
06:05AM 40.0311 -82.7600 49° Northeast 230 265 5,800 2,340 Climbing Indianapolis Center
06:06AM 40.1245 -83.4004 287° West  Level FlightAware Approximate
06:06AM 40.0636 -82.8372 299° West 255 293 8,400  Level Indianapolis Center
06:07AM 40.1551 -83.5329 287° West  Level FlightAware Approximate
06:07AM 40.1006 -82.9256 299° West 273 314 10,300  Level Indianapolis Center
06:08AM 40.1871 -83.6649 288° West  Level FlightAware Approximate
06:08AM 40.1414 -83.0264 298° West 309 356 12,000  Level Indianapolis Center
06:09AM 40.1861 -83.1364 298° West 338 389 13,500 1,440 Climbing Indianapolis Center
06:10AM 40.2336 -83.2550 298° West 363 418 14,900 1,500 Climbing Indianapolis Center
06:11AM 40.2825 -83.3792 297° West 379 436 16,500 1,440 Climbing Indianapolis Center
06:12AM 40.3331 -83.5050 298° West 388 447 17,900 1,620 Climbing Indianapolis Center
06:13AM 40.3828 -83.6322 297° West 390 449 19,800 1,620 Climbing Indianapolis Center
06:14AM 40.4331 -83.7592 298° West 391 450 21,200 1,380 Climbing Indianapolis Center
06:15AM 40.4856 -83.8936 297° West 407 468 22,600 1,320 Climbing Indianapolis Center
06:16AM 40.5383 -84.0292 297° West 414 476 23,900 1,260 Climbing Indianapolis Center
06:17AM 40.5917 -84.1661 297° West 418 481 25,200 1,020 Climbing Indianapolis Center
06:18AM 40.6450 -84.3056 297° West 425 489 26,000 360 Climbing Indianapolis Center
06:19AM 40.7019 -84.4533 297° West 447 514 26,000  Level Indianapolis Center
06:20AM 40.7597 -84.6042 297° West 457 526 26,000  Level Indianapolis Center
06:21AM 40.8169 -84.7550 297° West 456 525 26,000  Level Indianapolis Center
06:22AM 40.8767 -84.9189 296° West 457 526 26,000  Level Indianapolis Center
06:23AM 40.9225 -85.0722 292° West 453 521 26,000  Level Indianapolis Center
06:24AM 40.9650 -85.2200 291° West 448 516 26,000  Level Chicago Center
06:25AM 41.0108 -85.3719 292° West 446 513 26,000  Level Chicago Center
06:26AM 41.0558 -85.5278 291° West 448 516 26,000  Level Chicago Center
06:27AM 41.1000 -85.6836 291° West 450 518 26,000  Level Chicago Center
06:28AM 41.1461 -85.8394 291° West 451 519 26,000 -780 Level Chicago Center
06:29AM 41.1908 -85.9961 291° West 452 520 24,500 -1,800 Descending Chicago Center
06:30AM 41.2350 -86.1564 290° West 459 528 22,400 -2,100 Descending Chicago Center
06:31AM 41.2792 -86.3078 291° West 444 511 20,300 -2,040 Descending Chicago Center
06:32AM 41.3228 -86.4611 291° West 442 509 18,300 -1,980 Descending Chicago Center
06:33AM 41.3642 -86.6097 290° West 430 495 16,400 -2,100 Descending Chicago Center
06:34AM 41.4086 -86.7708 290° West 412 474 14,100 -2,160 Descending Chicago Center
06:35AM 41.4461 -86.9061 290° West 395 455 12,100 -1,560 Descending Chicago Center
06:36AM 41.4828 -87.0375 290° West 381 438 11,000 -600 Descending Chicago Center
06:37AM 41.5211 -87.1644 292° West 374 430 11,000  Level Chicago Center
06:38AM 41.5861 -87.2719 309° West 374 430 11,000  Level Chicago Center
06:39AM 41.6506 -87.3736 310° West 365 420 11,000 -540 Level Chicago Center
06:40AM 41.7031 -87.4586 310° West 311 358 10,000 -1,020 Descending Chicago Center
06:41AM 41.7683 -87.5033 333° Northwest 285 328 9,000 -1,020 Descending Chicago Center
06:42AM 41.8417 -87.5136 354° North 270 311 8,000 -1,440 Descending Chicago Center
06:43AM 41.9183 -87.5269 353° North 237 273 6,200 -1,500 Descending Chicago Center
06:44AM 41.9522 -87.6044 300° West 248 285 5,000 -1,200 Descending Chicago Center